This demonstration page uses our WeatherBlox Daily Observations layout. Learn more.

Left ArrowRight Arrow

36.17497, -115.13722

Hourly Observations for January 28, 2021

Temp ( °F °C ) Dew Point ( °F °C ) Humidity (%) Winds ( mph kmh ) Pressure ( in mb ) Visibility ( mi km ) Precip ( " mm )
12:53 am 00:53 Clear 42 5.6 28 -2.2 58 58 SSE 6 9 30.15 1021 10 16 N/A
1:53 am 01:53 Clear 42 5.6 28 -2.2 58 58 SE 6 9 30.14 1021 10 16 N/A
2:53 am 02:53 Clear 41 5 28 -2.2 60 60 SSE 6 9 30.13 1020 10 16 N/A
3:53 am 03:53 Clear 42 5.6 28 -2.2 58 58 SE 6 9 30.12 1020 10 16 N/A
4:53 am 04:53 Clear 43 6.1 27 -2.8 53 53 E 6 9 30.11 1020 10 16 N/A
5:53 am 05:53 Clear 40 4.4 28 -2.2 63 63 SE 8 13 30.12 1020 10 16 N/A
6:53 am 06:53 Sunny 41 5 27 -2.8 57 57 SSE 7 11 30.12 1020 10 16 N/A
7:53 am 07:53 Sunny 44 6.7 27 -2.8 51 51 SSE 5 7 30.11 1020 10 16 N/A
8:53 am 08:53 Sunny 46 7.8 27 -2.8 47 47 S 6 9 30.11 1020 10 16 N/A
9:53 am 09:53 Sunny 48 8.9 27 -2.8 44 44 SSE 6 9 30.11 1020 10 16 N/A
10:53 am 10:53 Sunny 50 10 28 -2.2 43 43 ESE 10 17 30.09 1019 10 16 N/A
11:53 am 11:53 Sunny 51 10.6 26 -3.3 38 38 SE 7 11 30.04 1017 10 16 N/A
12:53 pm 12:53 Sunny 53 11.7 26 -3.3 35 35 SSE 3 6 30.00 1016 10 16 N/A
1:53 pm 13:53 Sunny 55 12.8 26 -3.3 33 33 VRB 3 6 29.97 1015 10 16 N/A
2:53 pm 14:53 Sunny 56 13.3 27 -2.8 33 33 ESE 8 13 29.95 1014 10 16 N/A
3:53 pm 15:53 Sunny 56 13.3 26 -3.3 32 32 E 8 13 29.94 1014 10 16 N/A
4:53 pm 16:53 Sunny 54 12.2 27 -2.8 35 35 E 9 15 29.92 1013 10 16 N/A
5:53 pm 17:53 Clear 52 11.1 28 -2.2 40 40 ESE 7 11 29.91 1013 10 16 N/A
6:53 pm 18:53 Clear 52 11.1 28 -2.2 40 40 N N/A 29.91 1013 10 16 N/A
7:53 pm 19:53 Clear 50 10 29 -1.7 44 44 N N/A 29.90 1012 10 16 N/A
8:53 pm 20:53 Clear 49 9.4 30 -1.1 48 48 N N/A 29.90 1012 10 16 N/A
9:53 pm 21:53 Mostly Clear 48 8.9 30 -1.1 50 50 N N/A 29.90 1012 10 16 N/A
10:53 pm 22:53 Mostly Clear 48 8.9 30 -1.1 50 50 N N/A 29.88 1012 10 16 N/A
11:53 pm 23:53 Clear 51 10.6 28 -2.2 41 41 E 3 6 29.86 1011 10 16 N/A

Powered by AerisWeather